IRIDIUM 15 [+]

Last updated on Wed May 30 2018 00:19:59 GMT+0000 (Coordinated Universal Time)

1 24869U 97034A 18149.48689728 .00000181 00000-0 52582-4 0 9993 2 24869 86.4215 237.1571 0002009 92.6217 267.5211 14.38600282 93720

Satellite not in orbit

IRIDIUM 15 [+]